Tracking 19720 objects as of 25-Jun-2019
HD Live streaming from Space Station
objects crossing your sky now

CSO-1

Track CSO-1 now!
10-day predictions


NORAD ID: 43866
Int'l Code: 2018-106A
Perigee: 807.4 km
Apogee: 812.2 km
Inclination: 98.6 °
Period: 100.9 minutes
Semi major axis: 7180 km
RCS: Unknown
Launch date: December 19, 2018
Source: France (FR)
Launch site: FRENCH GUIANA (FRGUI)
aabbcc
Your satellite tracking list
Your tracking list is empty




NASA's NSSDC Master Catalog

Two Line Element Set (TLE):
1 43866U 18106A   19173.02811764 0.00000020  00000-0  82719-5 0    00
2 43866  98.6245 112.4346 0003337 151.7609 208.2390 14.26738076    07
Source of the keplerian elements: McCants